Location: Unspecified
(62.4273°N, 0.0000°E)
Time: 02:38:14
(UTC+00:00)

deb r/b (DELTA) - Visible Passes

Search period start: 04 April 2026 00:00
Search period end: 14 April 2026 00:00
Orbit: 830 x 1004 km, 98.9° (Epoch: 27 March)

Date Brightness Start Highest point End Pass type
(mag) Time Alt. Az. Time Alt. Az. Time Alt. Az.
4 Apr ? 00:17:34 10° NNE 00:22:58 55° ESE 00:24:36 41° SSE visible
4 Apr ? 01:59:52 10° NNE 02:05:03 46° NW 02:08:01 24° WSW visible
4 Apr ? 03:42:23 10° N 03:46:05 19° NNW 03:49:52 10° WNW visible
4 Apr ? 22:43:43 10° NE 22:47:18 17° E 22:48:55 15° ESE visible
5 Apr ? 00:25:03 10° NNE 00:30:30 61° ESE 00:32:19 41° SSE visible
5 Apr ? 02:07:22 10° NNE 02:12:29 43° NW 02:15:44 22° WSW visible
5 Apr ? 03:49:53 10° N 03:53:28 18° NNW 03:57:06 10° WNW visible
5 Apr ? 22:51:02 10° NE 22:54:55 19° E 22:56:38 17° ESE visible
6 Apr ? 00:32:31 10° NNE 00:38:01 67° ESE 00:40:02 40° S visible
6 Apr ? 02:14:52 10° NNE 02:19:56 39° NW 02:23:27 19° WSW visible
6 Apr ? 03:57:23 10° N 04:00:50 17° NNW 04:04:20 10° WNW visible
6 Apr ? 22:58:23 10° NE 23:02:32 21° E 23:04:20 18° ESE visible
7 Apr ? 00:40:00 10° NNE 00:45:32 74° ESE 00:47:45 38° S visible
7 Apr ? 02:22:22 10° NNE 02:27:22 37° NW 02:31:09 17° WSW visible
7 Apr ? 04:04:53 10° N 04:08:12 17° NNW 04:11:34 10° WNW visible
7 Apr ? 23:05:45 10° NE 23:10:07 23° E 23:12:03 20° ESE visible
8 Apr ? 00:47:28 10° NNE 00:53:02 80° ESE 00:55:28 36° SSW visible
8 Apr ? 02:29:53 10° NNE 02:34:47 34° NW 02:38:52 15° WSW visible
8 Apr ? 23:13:07 10° NNE 23:17:43 26° E 23:19:46 21° ESE visible
9 Apr ? 00:54:57 10° NNE 01:00:32 87° ESE 01:03:11 34° SSW visible
9 Apr ? 02:37:22 10° NNE 02:42:12 32° NW 02:46:35 13° WSW visible
9 Apr ? 23:20:32 10° NNE 23:25:18 28° E 23:27:29 22° SE visible
10 Apr ? 01:02:26 10° NNE 01:08:02 86° WNW 01:10:53 31° SSW visible
10 Apr ? 02:44:53 10° NNE 02:49:37 30° NW 02:54:18 11° WSW visible
10 Apr ? 23:27:56 10° NNE 23:32:53 31° E 23:35:11 23° SE visible
11 Apr ? 01:09:56 10° NNE 01:15:31 79° WNW 01:18:36 29° SSW visible
11 Apr ? 02:52:22 10° NNE 02:57:02 28° NW 03:01:48 10° W visible
11 Apr ? 23:35:22 10° NNE 23:40:27 34° E 23:42:54 24° SE visible
12 Apr ? 01:17:24 10° NNE 01:22:59 73° WNW 01:26:19 26° SW visible
12 Apr ? 02:59:52 10° NNE 03:04:26 27° NW 03:09:06 10° W visible
12 Apr ? 22:03:57 10° ENE 22:04:15 10° ENE 22:04:34 10° ENE visible
12 Apr ? 23:42:47 10° NNE 23:48:01 37° E 23:50:37 25° SE visible
13 Apr ? 01:24:54 10° NNE 01:30:28 67° WNW 01:34:01 24° SW visible
13 Apr ? 03:07:22 10° NNE 03:11:49 25° NW 03:16:24 10° W visible
13 Apr ? 22:10:08 10° NE 22:11:55 11° ENE 22:13:44 10° E visible
